Weather History for KBFL - September, 2013

Change the Weather History Date:

Sunday, September 1, 2013

  Actual Average Record
Temperature  
Mean Temperature 86 °F 80 °F  
Max Temperature 97 °F 93 °F 107 °F (1902)
Min Temperature 74 °F 67 °F 53 °F (1901)
Degree Days  
Heating Degree Days 0    
Month to date heating degree days 0  
Since 1 July heating degree days 0  
Cooling Degree Days 21    
Month to date cooling degree days 21  
Year to date cooling degree days 2135  
Growing Degree Days 35 (Base 50)    
Moisture  
Dew Point 59 °F    
Average Humidity 42    
Maximum Humidity 62    
Minimum Humidity 22    
Precipitation  
Precipitation 0.00 in 0.00 in 0.01 in (1987)
Month to date precipitation 0.00 0.00  
Year to date precipitation 2.36 4.43  
Since 1 July precipitation T  
Snow  
Snow 0.00 in - - ()
Month to date snowfall 0.0  
Since 1 July snowfall 0.0  
Since 1 September snowfall 0.0  
Snow Depth 0.00 in    
Sea Level Pressure  
Sea Level Pressure 29.84 in    
Wind  
Wind Speed 5 mph (NNW)    
Max Wind Speed 14 mph    
Max Gust Speed 15 mph    
Visibility 10 miles    
Events      
T = Trace of Precipitation, MM = Missing Value Source: NWS Daily Summary

Daily Weather History Graph

Daily Weather History Graph

Search for Another Location

Airport or City:

Trip Planner

Search our weather history database for the weather conditions in past years. The results will help you decide how hot, cold, wet, or windy it might be!

Date:

Astronomy

Sep. 01, 2013 Rise Set
Actual Time 6:28 AM PDT 7:22 PM PDT
Civil Twilight 6:02 AM PDT 7:48 PM PDT
Nautical Twilight 5:31 AM PDT 8:19 PM PDT
Astronomical Twilight 5:00 AM PDT 8:51 PM PDT
Moon 2:59 AM PDT (9/1) 4:59 PM PDT (9/1)
Length of Visible Light 13h 45m
Length of Day
12h 54m
Waning Crescent, 13% of the Moon is Illuminated
Sep 1
Waning Crescent
Sep 5
New
Sep 12
First Quarter
Sep 19
Full
Sep 26
Last Quarter

Hourly Weather History & Observations

Time (PDT) Temp. Heat Index Dew Point Humidity Pressure Visibility Wind Dir Wind Speed Gust Speed Precip Events Conditions
12:54 AM 84.0 °F 85.4 °F 64.0 °F 51% 29.87 in 10.0 mi North 4.6 mph - N/A   Clear
1:54 AM 82.0 °F 83.4 °F 64.0 °F 54% 29.86 in 10.0 mi NNW 5.8 mph - N/A   Clear
2:54 AM 81.0 °F 81.9 °F 62.1 °F 52% 29.86 in 10.0 mi NW 4.6 mph - N/A   Clear
3:54 AM 78.1 °F - 62.1 °F 58% 29.85 in 10.0 mi Calm Calm - N/A   Clear
4:54 AM 77.0 °F - 62.1 °F 60% 29.86 in 10.0 mi Calm Calm - N/A   Clear
5:54 AM 77.0 °F - 61.0 °F 58% 29.87 in 10.0 mi Calm Calm - N/A   Clear
6:54 AM 75.9 °F - 60.1 °F 58% 29.88 in 10.0 mi Calm Calm - N/A   Clear
7:54 AM 79.0 °F - 64.0 °F 60% 29.89 in 10.0 mi Calm Calm - N/A   Clear
8:54 AM 81.0 °F 81.6 °F 60.1 °F 49% 29.89 in 10.0 mi Calm Calm - N/A   Clear
9:54 AM 86.0 °F 84.9 °F 57.0 °F 37% 29.89 in 10.0 mi Variable 3.5 mph - N/A   Clear
10:54 AM 86.0 °F 84.0 °F 53.1 °F 32% 29.88 in 10.0 mi WSW 4.6 mph - N/A   Clear
11:54 AM 89.1 °F 86.7 °F 53.1 °F 29% 29.87 in 10.0 mi North 3.5 mph - N/A   Clear
12:54 PM 90.0 °F - 52.0 °F 27% 29.85 in 10.0 mi NW 6.9 mph - N/A   Clear
1:54 PM 91.0 °F 88.5 °F 53.1 °F 27% 29.84 in 10.0 mi West 8.1 mph - N/A   Clear
2:54 PM 95.0 °F 93.0 °F 55.0 °F 26% 29.81 in 10.0 mi NNW 9.2 mph - N/A   Clear
3:54 PM 96.1 °F - 52.0 °F 22% 29.79 in 10.0 mi NNW 9.2 mph - N/A   Clear
4:54 PM 95.0 °F 92.7 °F 54.0 °F 25% 29.78 in 10.0 mi NNW 10.4 mph - N/A   Clear
5:54 PM 91.9 °F 91.2 °F 59.0 °F 33% 29.78 in 10.0 mi NNW 10.4 mph - N/A   Clear
6:54 PM 91.9 °F 90.8 °F 57.9 °F 32% 29.79 in 10.0 mi NNW 6.9 mph - N/A   Clear
7:54 PM 91.0 °F 90.0 °F 57.9 °F 33% 29.80 in 10.0 mi North 4.6 mph - N/A   Clear
8:54 PM 88.0 °F 86.7 °F 57.0 °F 35% 29.81 in 10.0 mi West 3.5 mph - N/A   Clear
9:54 PM 82.9 °F 84.0 °F 63.0 °F 51% 29.83 in 10.0 mi NNW 8.1 mph - N/A   Clear
10:54 PM 82.9 °F 84.0 °F 63.0 °F 51% 29.84 in 10.0 mi North 8.1 mph - N/A   Clear
11:54 PM 82.0 °F 83.0 °F 62.1 °F 51% 29.85 in 10.0 mi North 6.9 mph - N/A   Clear